Location: Sigmaringen
(48.0900°N, 9.2120°E)
Time: 22:11:49
(UTC+01:00)

Amateur Radio Satellites - All Passes

Search period start: 21 November 2017 21:41
Search period end: 22 November 2017 21:41
Location: Sigmaringen, 48.0900°N, 9.2120°E

Satellite Date Start Highest point End Downlink Frequencies (MHz)
Time Altitude Azimuth
nSIGHT-1 21 Nov 21:59:04 22:02:16 68° 153° (SSE) 22:05:29 .
RS-15 21 Nov 22:01:07 22:12:46 44° 334° (NNW) 22:24:10 29.354- 29.394
SO-50 21 Nov 22:04:29 22:08:47 49° 122° (ESE) 22:13:10 436.795
UNISAT 6 21 Nov 22:17:29 22:21:47 72° 103° (ESE) 22:26:01 437.425
O/OREOS (USA 219) 21 Nov 22:18:26 22:22:33 32° 54° (NE) 22:26:37 437.305
TIGRISAT 21 Nov 22:21:44 22:26:02 73° 103° (ESE) 22:30:16 435.000
EO-88 21 Nov 22:32:21 22:34:51 18° 268° (W) 22:37:22 145.990 - 145.960
Max Valier Satellite 21 Nov 22:35:59 22:37:32 12° 271° (W) 22:39:05 145.860
SPROUT 21 Nov 22:37:22 22:40:07 17° 61° (ENE) 22:42:52 437.525
ISS 21 Nov 22:44:11 22:47:27 75° 340° (NNW) 22:50:44 437.550
FO-29 21 Nov 22:50:14 22:56:53 31° 303° (WNW) 23:03:19 435.910
LO-87 21 Nov 22:54:05 22:57:41 67° 258° (WSW) 23:01:17 145.935 - 145.965
ESTCUBE 1 21 Nov 22:58:19 23:02:48 89° 270° (W) 23:07:20 437.505/2401.250
PCSat 21 Nov 23:05:02 23:06:25 11° 101° (E) 23:07:48 145.827
NO-84 21 Nov 23:06:35 23:09:50 21° 230° (SW) 23:13:03 435.350 FM
PRISM 21 Nov 23:10:10 23:14:22 89° 102° (ESE) 23:18:31 437.425
VELOX 1 21 Nov 23:17:47 23:21:34 28° 65° (ENE) 23:25:23 145.980
AIST 2D 21 Nov 23:21:34 23:24:56 40° 98° (E) 23:28:17 435.315
DUCHIFAT 1 21 Nov 23:29:46 23:32:07 15° 90° (E) 23:34:26 145.980
nSIGHT-1 21 Nov 23:35:31 23:38:38 45° 353° (N) 23:41:44 .
EO-79 21 Nov 23:36:52 23:40:10 22° 93° (E) 23:43:27 145.935-145.965
NANOSAT C BR1 21 Nov 23:39:54 23:43:07 21° 93° (E) 23:46:18 145.865
SO-50 21 Nov 23:45:29 23:49:27 30° 322° (NW) 23:53:29 436.795
POLYITAN 1 21 Nov 23:52:00 23:55:44 31° 96° (E) 23:59:28 437.675
UNISAT 6 21 Nov 23:55:36 23:57:57 15° 301° (WNW) 00:00:18 437.425
O/OREOS (USA 219) 21 Nov 23:57:51 00:01:59 34° 254° (WSW) 00:06:03 437.305
TIGRISAT 21 Nov 23:59:52 00:02:11 14° 301° (WNW) 00:04:28 435.000
DX 1 22 Nov 00:02:31 00:05:47 21° 62° (ENE) 00:09:05 434.975-435.025
SPROUT 22 Nov 00:11:19 00:15:34 61° 259° (W) 00:19:50 437.525
QB50P2 22 Nov 00:15:05 00:19:16 59° 101° (E) 00:23:24 145.880/145.840
RS-15 22 Nov 00:18:05 00:29:06 36° 8° (N) 00:39:42 29.354- 29.394
ISS 22 Nov 00:21:04 00:24:13 42° 360° (N) 00:27:21 437.550
BUGSAT 1 22 Nov 00:21:06 00:22:51 12° 89° (E) 00:24:35 437.445
50 SAT 22 Nov 00:34:24 00:37:23 35° 70° (ENE) 00:40:24 437.505
Oscar 19 22 Nov 00:37:03 00:39:23 13° 87° (E) 00:41:43 437.125/150
ESTCUBE 1 22 Nov 00:39:15 00:40:17 11° 274° (W) 00:41:20 437.505/2401.250
UKube-1 22 Nov 00:42:56 00:46:46 32° 66° (ENE) 00:50:38 .
PCSat 22 Nov 00:43:25 00:48:48 69° 120° (ESE) 00:54:12 145.827
PRISM 22 Nov 00:47:24 00:48:58 12° 303° (WNW) 00:50:31 437.425
VELOX 1 22 Nov 00:53:49 00:57:53 35° 263° (W) 01:02:02 145.980
AIST 2D 22 Nov 00:55:32 00:57:49 16° 296° (WNW) 01:00:05 435.315
DUCHIFAT 1 22 Nov 01:04:02 01:08:10 60° 288° (WNW) 01:12:15 145.980
Gurwin Techsat 1B 22 Nov 01:05:06 01:08:37 18° 89° (E) 01:12:06 435.225
nSIGHT-1 22 Nov 01:12:03 01:15:12 51° 12° (NNE) 01:18:20 .
EO-79 22 Nov 01:12:09 01:16:05 39° 291° (WNW) 01:19:59 145.935-145.965
NANOSAT C BR1 22 Nov 01:15:03 01:19:00 41° 291° (WNW) 01:22:55 145.865
POLYITAN 1 22 Nov 01:27:51 01:31:28 29° 294° (WNW) 01:35:04 437.675
SO-50 22 Nov 01:29:41 01:31:22 12° 346° (NNW) 01:33:03 436.795
DX 1 22 Nov 01:37:25 01:41:40 49° 260° (W) 01:45:56 434.975-435.025
BEESAT 22 Nov 01:49:08 01:53:04 26° 63° (ENE) 01:57:01 436.000
QB50P2 22 Nov 01:51:56 01:54:37 17° 299° (WNW) 01:57:17 145.880/145.840
BUGSAT 1 22 Nov 01:54:38 01:58:41 67° 286° (WNW) 02:02:39 437.445
ISS 22 Nov 01:57:41 02:00:58 73° 19° (NNE) 02:04:14 437.550
ITUPSAT 1 22 Nov 01:58:53 02:03:04 31° 64° (ENE) 02:07:15 437.325
MOZHAYETS 4 22 Nov 02:06:12 02:10:29 42° 69° (ENE) 02:14:47
50 SAT 22 Nov 02:07:44 02:09:38 15° 268° (W) 02:11:33 437.505
Oscar 19 22 Nov 02:14:15 02:19:27 88° 107° (ESE) 02:24:37 437.125/150
UKube-1 22 Nov 02:18:59 02:22:46 29° 264° (W) 02:26:36 .
CUBESAT XI-V 22 Nov 02:20:45 02:23:41 17° 59° (ENE) 02:26:39 437.345
PCSat 22 Nov 02:28:03 02:32:41 28° 321° (NW) 02:37:19 145.827
BEESAT 3 22 Nov 02:32:34 02:36:00 28° 117° (ESE) 02:39:28 437.485
RS-15 22 Nov 02:32:34 02:44:32 61° 40° (NE) 02:55:49 29.354- 29.394
Gurwin Techsat 1B 22 Nov 02:43:48 02:49:08 74° 288° (WNW) 02:54:26 435.225
nSIGHT-1 22 Nov 02:48:21 02:51:26 45° 212° (SSW) 02:54:30 .
M-CUBED/EXP-1 PRIME 22 Nov 03:03:02 03:07:22 43° 104° (ESE) 03:11:47 437.505
SO-50 22 Nov 03:12:35 03:13:54 11° 11° (N) 03:15:13 436.795
AO-7 22 Nov 03:20:17 03:28:01 40° 98° (E) 03:35:43 .
AO-85 22 Nov 03:24:30 03:25:41 11° 109° (ESE) 03:26:53 145.980
BEESAT 22 Nov 03:26:04 03:30:37 44° 261° (W) 03:35:12 436.000
ISS 22 Nov 03:34:28 03:37:13 25° 218° (SW) 03:39:58 437.550
ITUPSAT 1 22 Nov 03:36:23 03:40:48 36° 263° (W) 03:45:14 437.325
MOZHAYETS 4 22 Nov 03:44:05 03:47:48 24° 267° (W) 03:51:32
BEESAT 2 22 Nov 03:44:54 03:48:45 45° 121° (ESE) 03:52:39 435.950
KKS-1 22 Nov 03:54:04 03:58:03 33° 66° (ENE) 04:02:04 437.445
Oscar 19 22 Nov 03:54:58 03:58:05 16° 304° (NW) 04:01:13 437.125/150
YUBILEINY 22 Nov 03:55:10 03:59:59 16° 72° (ENE) 04:04:48 435.215
CUBESAT XI-V 22 Nov 03:55:58 04:00:32 69° 258° (WSW) 04:05:10 437.345
ITAMSAT 1 22 Nov 04:07:57 04:13:09 62° 102° (ESE) 04:18:17 435.822/435.867
BEESAT 3 22 Nov 04:09:40 04:13:25 38° 316° (NW) 04:17:13 437.485
PCSat 22 Nov 04:16:12 04:18:00 11° 346° (NNW) 04:19:48 145.827
STARS 22 Nov 04:16:59 04:20:33 24° 63° (ENE) 04:24:08 437.465
Gurwin Techsat 1B 22 Nov 04:25:36 04:28:12 14° 307° (NW) 04:30:47 435.225
DOVE 4 22 Nov 04:31:14 04:35:23 24° 90° (E) 04:39:22 437.250
M-CUBED/EXP-1 PRIME 22 Nov 04:37:44 04:41:33 28° 301° (WNW) 04:45:27 437.505
RS-15 22 Nov 04:45:38 04:56:55 53° 247° (WSW) 05:07:36 29.354- 29.394
SO-50 22 Nov 04:52:05 04:55:56 25° 35° (NE) 04:59:50 436.795
AO-85 22 Nov 05:01:24 05:05:20 85° 307° (NW) 05:09:29 145.980
STRAND 1 22 Nov 05:09:01 05:11:30 14° 54° (NE) 05:13:57 437.568
AO-7 22 Nov 05:12:58 05:21:04 57° 299° (WNW) 05:29:10 .
BEESAT 2 22 Nov 05:23:09 05:26:39 27° 321° (NW) 05:30:11 435.950
KKS-1 22 Nov 05:30:37 05:34:35 31° 264° (W) 05:38:36 437.445
XW-2D 22 Nov 05:34:00 05:36:29 16° 91° (E) 05:38:57 145.860 - 145.880
FO-29 22 Nov 05:39:40 05:42:58 14° 42° (NE) 05:46:21 435.910
CUTE-I 22 Nov 05:45:22 05:49:26 21° 91° (E) 05:53:28 437.470
YUBILEINY 22 Nov 05:46:24 05:55:05 72° 94° (E) 06:03:52 435.215
ITAMSAT 1 22 Nov 05:48:13 05:52:11 22° 301° (WNW) 05:56:08 435.822/435.867
XW-2B 22 Nov 05:48:25 05:51:28 22° 94° (E) 05:54:30 145.730 - 145.750
BEESAT 3 22 Nov 05:50:50 05:52:03 11° 338° (NNW) 05:53:16 437.485
STARS 22 Nov 05:52:28 05:56:40 42° 261° (W) 06:00:54 437.465
NUDT-PHONESAT 22 Nov 06:00:22 06:03:15 21° 93° (E) 06:06:07 437.300
PCSat 22 Nov 06:02:19 06:04:03 11° 13° (NNE) 06:05:47 145.827
DOVE 4 22 Nov 06:08:16 06:13:22 53° 290° (WNW) 06:18:13 437.250
XW-2C 22 Nov 06:13:38 06:17:17 42° 98° (E) 06:20:56 145.795 - 145.815
LilacSat-2 22 Nov 06:16:28 06:20:13 49° 100° (E) 06:23:57 437.200
XW-2F 22 Nov 06:23:37 06:27:20 51° 100° (E) 06:31:03 145.980 - 146.000
HO-68 22 Nov 06:26:51 06:32:37 25° 91° (E) 06:38:19 435.675
SO-50 22 Nov 06:32:12 06:36:49 68° 236° (SW) 06:41:29 436.795
CUTE 1.7 + AOD 2 22 Nov 06:34:00 06:37:10 20° 91° (E) 06:40:17 437.475
AO-85 22 Nov 06:43:38 06:46:25 17° 331° (NNW) 06:49:18 145.980
STRAND 1 22 Nov 06:44:41 06:49:50 76° 73° (ENE) 06:54:59 437.568
KAITUO 1B 22 Nov 06:50:11 06:53:58 83° 103° (ESE) 06:57:45 145.475/437.950
UWE-3 22 Nov 06:58:19 06:59:43 11° 87° (E) 07:01:06 435.000/436.395/437.385
SEEDS 22 Nov 07:02:47 07:06:16 24° 93° (E) 07:09:44 437.485
RS-15 22 Nov 07:03:26 07:06:05 11° 271° (W) 07:08:42 29.354- 29.394
AO-7 22 Nov 07:07:07 07:12:09 18° 321° (NW) 07:17:12 .
XW-2D 22 Nov 07:07:14 07:10:53 44° 288° (WNW) 07:14:31 145.860 - 145.880
AAUSAT CUBESAT 2 22 Nov 07:08:27 07:10:20 13° 88° (E) 07:12:13 437.432
XW-2A 22 Nov 07:11:56 07:13:15 12° 90° (E) 07:14:33 145.665 - 145.685
FO-29 22 Nov 07:19:37 07:26:09 50° 65° (ENE) 07:33:23 435.910
XW-2B 22 Nov 07:22:16 07:25:41 32° 291° (WNW) 07:29:07 145.730 - 145.750
CUTE-I 22 Nov 07:24:35 07:29:54 62° 290° (WNW) 07:35:10 437.470
NUDT-PHONESAT 22 Nov 07:33:49 07:37:10 32° 291° (WNW) 07:40:30 437.300
AO-73 22 Nov 07:36:44 07:38:58 14° 89° (E) 07:41:11 145.935
CUBEBUG 2 22 Nov 07:37:28 07:41:33 49° 99° (E) 07:45:34 437.445
PCSat 22 Nov 07:44:48 07:49:24 27° 38° (NE) 07:53:59 145.827
YUBILEINY 22 Nov 07:45:11 07:52:43 31° 297° (WNW) 08:00:22 435.215
UNISAT 6 22 Nov 07:45:25 07:47:36 14° 58° (ENE) 07:49:47 437.425
XW-2C 22 Nov 07:48:31 07:51:11 18° 296° (WNW) 07:53:50 145.795 - 145.815
TIGRISAT 22 Nov 07:49:30 07:51:44 14° 58° (ENE) 07:53:55 435.000
LilacSat-2 22 Nov 07:51:41 07:54:08 16° 297° (WNW) 07:56:35 437.200
Oscar 11 22 Nov 07:52:07 07:54:36 15° 89° (E) 07:57:05 .
XW-2F 22 Nov 07:58:46 08:01:04 16° 297° (WNW) 08:03:22 145.980 - 146.000
CUTE 1.7 + AOD 2 22 Nov 08:09:07 08:13:13 46° 289° (WNW) 08:17:18 437.475
HO-68 22 Nov 08:13:49 08:21:01 74° 291° (WNW) 08:28:09 435.675
ZACube-1 22 Nov 08:21:01 08:25:01 44° 99° (E) 08:28:59 437.345
STRAND 1 22 Nov 08:26:23 08:29:35 16° 271° (W) 08:32:47 437.568
KAITUO 1B 22 Nov 08:26:32 08:27:20 11° 301° (WNW) 08:28:09 145.475/437.950
PRISM 22 Nov 08:29:49 08:31:42 13° 58° (ENE) 08:33:35 437.425
UWE-3 22 Nov 08:32:34 08:36:44 75° 284° (WNW) 08:40:51 435.000/436.395/437.385
SEEDS 22 Nov 08:38:07 08:42:02 37° 291° (WNW) 08:45:57 437.485
AAUSAT CUBESAT 2 22 Nov 08:42:05 08:46:16 71° 285° (WNW) 08:50:26 437.432
XW-2A 22 Nov 08:42:57 08:46:14 48° 287° (WNW) 08:49:29 145.665 - 145.685
FO-29 22 Nov 09:05:01 09:11:19 40° 267° (W) 09:18:20 435.910
DELFI C3 22 Nov 09:05:34 09:08:21 18° 91° (E) 09:11:06 145.870
CUTE-I 22 Nov 09:07:03 09:08:54 12° 310° (NW) 09:10:47 437.470
BEESAT 3 22 Nov 09:08:49 09:10:50 13° 26° (NNE) 09:12:49 437.485
AO-73 22 Nov 09:11:30 09:15:35 61° 288° (WNW) 09:19:42 145.935
CUBEBUG 2 22 Nov 09:14:55 09:17:49 19° 298° (WNW) 09:20:42 437.445
UNISAT 6 22 Nov 09:19:08 09:23:42 86° 258° (WSW) 09:28:11 437.425
TIGRISAT 22 Nov 09:23:14 09:27:48 86° 258° (WSW) 09:32:17 435.000
Oscar 11 22 Nov 09:26:52 09:31:10 64° 287° (WNW) 09:35:27 .
PCSat 22 Nov 09:27:53 09:33:19 71° 240° (WSW) 09:38:42 145.827
EO-88 22 Nov 09:56:00 09:59:15 29° 96° (E) 10:02:29 145.990 - 145.960
ZACube-1 22 Nov 09:57:58 10:01:02 20° 296° (WNW) 10:04:05 437.345
AIST 2D 22 Nov 09:59:09 10:02:03 25° 68° (ENE) 10:04:58 435.315
Max Valier Satellite 22 Nov 09:59:33 10:03:07 46° 99° (E) 10:06:39 145.860
PRISM 22 Nov 10:02:14 10:06:22 81° 258° (WSW) 10:10:33 437.425
HO-68 22 Nov 10:02:52 10:07:37 19° 312° (NW) 10:12:22 435.675
AO-85 22 Nov 10:09:02 10:11:03 13° 21° (NNE) 10:13:09 145.980
BEESAT 2 22 Nov 10:21:59 10:24:48 18° 32° (NNE) 10:27:35 435.950
DUCHIFAT 1 22 Nov 10:24:38 10:27:33 18° 62° (ENE) 10:30:27 145.980
EO-79 22 Nov 10:32:22 10:35:56 27° 65° (ENE) 10:39:30 145.935-145.965
NANOSAT C BR1 22 Nov 10:35:03 10:38:32 25° 65° (ENE) 10:42:01 145.865
DELFI C3 22 Nov 10:39:29 10:43:19 45° 289° (WNW) 10:47:07 145.870
BEESAT 3 22 Nov 10:45:18 10:49:14 55° 48° (NE) 10:53:04 437.485
POLYITAN 1 22 Nov 10:47:32 10:51:26 37° 69° (ENE) 10:55:20 437.675
ESTCUBE 1 22 Nov 10:48:16 10:50:58 15° 89° (E) 10:53:38 437.505/2401.250
UNISAT 6 22 Nov 11:00:12 11:01:03 10° 274° (W) 11:01:54 437.425
TIGRISAT 22 Nov 11:04:24 11:05:08 10° 274° (W) 11:05:52 435.000
QB50P2 22 Nov 11:10:33 11:14:47 70° 73° (ENE) 11:19:00 145.880/145.840
BUGSAT 1 22 Nov 11:13:44 11:16:20 16° 61° (ENE) 11:18:55 437.445
PCSat 22 Nov 11:14:02 11:15:42 11° 259° (WSW) 11:17:22 145.827
EO-88 22 Nov 11:29:50 11:32:46 23° 294° (WNW) 11:35:41 145.990 - 145.960
AIST 2D 22 Nov 11:32:21 11:35:11 23° 266° (W) 11:38:02 435.315
Max Valier Satellite 22 Nov 11:34:18 11:36:36 16° 297° (WNW) 11:38:53 145.860
AO-85 22 Nov 11:48:22 11:52:38 39° 43° (NE) 11:57:14 145.980
LO-87 22 Nov 11:50:28 11:54:02 89° 285° (WNW) 11:57:34 145.935 - 145.965
SPROUT 22 Nov 11:54:04 11:56:56 17° 91° (E) 11:59:48 437.525
Oscar 19 22 Nov 11:56:29 12:00:48 28° 63° (ENE) 12:05:09 437.125/150
FALCONSAT 3 22 Nov 11:58:26 11:59:46 12° 182° (S) 12:01:06 435.103
DUCHIFAT 1 22 Nov 11:58:43 12:02:51 53° 260° (W) 12:06:58 145.980
BEESAT 2 22 Nov 11:59:02 12:03:06 88° 44° (NE) 12:07:07 435.950
EO-79 22 Nov 12:07:42 12:11:34 34° 263° (W) 12:15:27 145.935-145.965
NANOSAT C BR1 22 Nov 12:10:12 12:14:05 36° 263° (W) 12:18:01 145.865
M-CUBED/EXP-1 PRIME 22 Nov 12:20:45 12:22:00 11° 49° (NE) 12:23:18 437.505
BEESAT 3 22 Nov 12:23:39 12:26:23 18° 247° (WSW) 12:29:05 437.485
ESTCUBE 1 22 Nov 12:23:42 12:28:13 67° 287° (WNW) 12:32:43 437.505/2401.250
POLYITAN 1 22 Nov 12:23:50 12:27:18 24° 266° (W) 12:30:47 437.675
Gurwin Techsat 1B 22 Nov 12:29:09 12:34:04 40° 66° (ENE) 12:39:00 435.225
AO-7 22 Nov 12:33:47 12:39:39 22° 43° (NE) 12:45:31 .
O/OREOS (USA 219) 22 Nov 12:35:34 12:38:36 18° 100° (E) 12:41:40 437.305
VELOX 1 22 Nov 12:39:47 12:43:50 32° 96° (E) 12:47:50 145.980
BUGSAT 1 22 Nov 12:47:06 12:51:15 61° 258° (WSW) 12:55:23 437.445
QB50P2 22 Nov 12:49:00 12:51:02 13° 271° (W) 12:53:04 145.880/145.840
50 SAT 22 Nov 13:20:26 13:22:45 18° 94° (E) 13:25:03 437.505
DX 1 22 Nov 13:22:19 13:25:43 22° 93° (E) 13:29:07 434.975-435.025
AO-85 22 Nov 13:28:45 13:33:05 38° 241° (WSW) 13:37:42 145.980
SPROUT 22 Nov 13:28:59 13:33:08 52° 289° (WNW) 13:37:15 437.525
Oscar 19 22 Nov 13:35:02 13:39:55 45° 261° (W) 13:44:52 437.125/150
BEESAT 2 22 Nov 13:38:50 13:40:10 11° 251° (WSW) 13:41:31 435.950
ITAMSAT 1 22 Nov 13:51:39 13:55:40 23° 59° (ENE) 13:59:42 435.822/435.867
M-CUBED/EXP-1 PRIME 22 Nov 13:52:01 13:55:39 88° 75° (ENE) 13:59:38 437.505
YUBILEINY 22 Nov 13:58:28 14:00:41 11° 42° (NE) 14:02:54 435.215
UKube-1 22 Nov 14:01:43 14:05:40 33° 97° (E) 14:09:36 .
ESTCUBE 1 22 Nov 14:03:56 14:04:09 10° 306° (NW) 14:04:21 437.505/2401.250
Gurwin Techsat 1B 22 Nov 14:09:17 14:14:04 33° 264° (W) 14:18:53 435.225
O/OREOS (USA 219) 22 Nov 14:12:59 14:17:32 61° 299° (WNW) 14:22:08 437.305
VELOX 1 22 Nov 14:16:17 14:20:13 31° 294° (WNW) 14:24:07 145.980
AO-7 22 Nov 14:22:53 14:31:06 72° 65° (ENE) 14:39:23 .
NO-84 22 Nov 14:24:18 14:26:33 16° 127° (SE) 14:28:53 435.350 FM
50 SAT 22 Nov 14:52:04 14:54:53 28° 291° (WNW) 14:57:40 437.505
DX 1 22 Nov 14:57:55 15:02:06 44° 291° (WNW) 15:06:15 434.975-435.025
BEESAT 22 Nov 15:22:18 15:26:40 35° 97° (E) 15:30:59 436.000
ITAMSAT 1 22 Nov 15:29:32 15:34:43 62° 258° (WSW) 15:39:56 435.822/435.867
ITUPSAT 1 22 Nov 15:32:41 15:37:14 42° 99° (E) 15:41:44 437.325
MOZHAYETS 4 22 Nov 15:34:07 15:38:39 60° 101° (E) 15:43:10
UKube-1 22 Nov 15:37:53 15:41:36 28° 295° (WNW) 15:45:18 .
DOVE 4 22 Nov 15:39:12 15:43:47 34° 65° (ENE) 15:48:32 437.250
CUBESAT XI-V 22 Nov 15:49:11 15:52:55 23° 92° (E) 15:56:39 437.345
YUBILEINY 22 Nov 15:52:10 16:00:33 44° 69° (ENE) 16:08:51 435.215
O/OREOS (USA 219) 22 Nov 15:56:11 15:57:57 12° 320° (NW) 15:59:43 437.305
NO-84 22 Nov 15:59:30 16:03:17 85° 142° (SE) 16:07:21 435.350 FM
AO-7 22 Nov 16:17:33 16:24:33 30° 266° (W) 16:31:37 .
XW-2D 22 Nov 16:19:10 16:21:11 14° 62° (ENE) 16:23:14 145.860 - 145.880
XW-2B 22 Nov 16:33:17 16:35:57 19° 64° (ENE) 16:38:38 145.730 - 145.750
NUDT-PHONESAT 22 Nov 16:43:07 16:45:31 17° 64° (ENE) 16:47:55 437.300
XW-2C 22 Nov 16:58:06 17:01:29 34° 69° (ENE) 17:04:54 145.795 - 145.815
HO-68 22 Nov 16:59:35 17:05:34 30° 55° (NE) 17:11:34 435.675
BEESAT 22 Nov 17:00:10 17:04:22 32° 295° (WNW) 17:08:34 436.000
LilacSat-2 22 Nov 17:01:30 17:05:01 39° 71° (ENE) 17:08:34 437.200
RS-15 22 Nov 17:03:52 17:12:17 22° 98° (E) 17:20:38 29.354- 29.394
XW-2F 22 Nov 17:07:29 17:10:58 40° 71° (ENE) 17:14:29 145.980 - 146.000
CUTE-I 22 Nov 17:10:15 17:15:24 49° 68° (ENE) 17:20:34 437.470
ITUPSAT 1 22 Nov 17:10:52 17:14:52 27° 297° (WNW) 17:18:50 437.325
MOZHAYETS 4 22 Nov 17:12:12 17:15:23 19° 299° (WNW) 17:18:34
DOVE 4 22 Nov 17:16:38 17:21:23 38° 265° (W) 17:26:18 437.250
KKS-1 22 Nov 17:17:17 17:21:28 37° 98° (E) 17:25:37 437.445
CUBESAT XI-V 22 Nov 17:26:01 17:30:31 46° 290° (WNW) 17:35:00 437.345
CUTE 1.7 + AOD 2 22 Nov 17:30:01 17:33:16 22° 64° (ENE) 17:36:33 437.475
KAITUO 1B 22 Nov 17:32:59 17:36:36 62° 74° (ENE) 17:40:17 145.475/437.950
NO-84 22 Nov 17:37:20 17:40:59 35° 348° (NNW) 17:44:51 435.350 FM
STARS 22 Nov 17:38:11 17:41:53 26° 95° (E) 17:45:34 437.465
YUBILEINY 22 Nov 17:49:06 17:57:32 51° 271° (W) 18:05:54 435.215
XW-2D 22 Nov 17:51:16 17:54:56 56° 260° (W) 17:58:39 145.860 - 145.880
SEEDS 22 Nov 17:57:42 18:01:10 26° 66° (ENE) 18:04:40 437.485
UWE-3 22 Nov 17:57:59 18:00:46 17° 61° (ENE) 18:03:32 435.000/436.395/437.385
AAUSAT CUBESAT 2 22 Nov 18:01:58 18:04:11 14° 60° (ENE) 18:06:26 437.432
XW-2B 22 Nov 18:06:21 18:09:52 39° 262° (W) 18:13:25 145.730 - 145.750
NUDT-PHONESAT 22 Nov 18:15:35 18:19:03 42° 261° (W) 18:22:34 437.300
XW-2C 22 Nov 18:32:54 18:35:45 20° 267° (W) 18:38:37 145.795 - 145.815
AO-73 22 Nov 18:35:21 18:38:17 18° 63° (ENE) 18:41:12 145.935
LilacSat-2 22 Nov 18:36:52 18:39:28 18° 268° (W) 18:42:06 437.200
CUBEBUG 2 22 Nov 18:38:15 18:42:45 65° 74° (ENE) 18:47:08 437.445
XW-2F 22 Nov 18:42:44 18:45:16 17° 268° (W) 18:47:49 145.980 - 146.000
HO-68 22 Nov 18:45:34 18:52:45 71° 256° (WSW) 18:59:59 435.675
Oscar 11 22 Nov 18:50:13 18:53:12 19° 62° (ENE) 18:56:11 .
CUTE-I 22 Nov 18:51:08 18:55:40 27° 267° (W) 19:00:14 437.470
STRAND 1 22 Nov 18:52:24 18:56:06 20° 91° (E) 18:59:45 437.568
KKS-1 22 Nov 18:54:07 18:57:53 27° 296° (WNW) 19:01:37 437.445
CUTE 1.7 + AOD 2 22 Nov 19:04:53 19:08:52 41° 262° (W) 19:12:53 437.475
KAITUO 1B 22 Nov 19:09:44 19:11:00 11° 272° (W) 19:12:16 145.475/437.950
RS-15 22 Nov 19:10:25 19:22:41 75° 121° (ESE) 19:34:50 29.354- 29.394
STARS 22 Nov 19:14:15 19:18:19 37° 293° (WNW) 19:22:19 437.465
NO-84 22 Nov 19:15:22 19:19:06 33° 9° (N) 19:22:59 435.350 FM
XW-2A 22 Nov 19:16:45 19:20:04 89° 257° (WSW) 19:23:25 145.665 - 145.685
ZACube-1 22 Nov 19:19:47 19:23:58 54° 72° (ENE) 19:28:06 437.345
UWE-3 22 Nov 19:32:26 19:36:48 62° 258° (WSW) 19:41:06 435.000/436.395/437.385
SEEDS 22 Nov 19:32:56 19:36:43 34° 264° (W) 19:40:34 437.485
AAUSAT CUBESAT 2 22 Nov 19:35:00 19:39:07 70° 258° (WSW) 19:43:17 437.432
DELFI C3 22 Nov 19:54:17 19:56:58 18° 63° (ENE) 19:59:39 145.870
AO-73 22 Nov 20:10:00 20:14:11 52° 260° (W) 20:18:19 145.935
FO-29 22 Nov 20:10:03 20:17:10 36° 92° (E) 20:23:54 435.910
CUBEBUG 2 22 Nov 20:17:04 20:19:46 15° 270° (W) 20:22:27 437.445
ISS 22 Nov 20:17:13 20:19:08 15° 137° (SE) 20:21:05 437.550
Oscar 11 22 Nov 20:24:45 20:28:57 54° 260° (W) 20:33:11 .
STRAND 1 22 Nov 20:30:38 20:35:43 63° 289° (WNW) 20:40:44 437.568
EO-88 22 Nov 20:37:02 20:39:53 22° 66° (ENE) 20:42:46 145.990 - 145.960
HO-68 22 Nov 20:38:11 20:41:47 14° 276° (W) 20:45:23 435.675
Max Valier Satellite 22 Nov 20:41:29 20:44:48 34° 70° (ENE) 20:48:08 145.860
SO-50 22 Nov 20:51:25 20:54:05 16° 111° (ESE) 20:56:48 436.795
NO-84 22 Nov 20:52:45 20:56:58 72° 29° (NNE) 21:01:15 435.350 FM
ZACube-1 22 Nov 20:57:47 21:00:34 17° 269° (W) 21:03:20 437.345
O/OREOS (USA 219) 22 Nov 21:02:42 21:04:23 12° 39° (NE) 21:06:05 437.305
nSIGHT-1 22 Nov 21:03:26 21:06:27 39° 147° (SSE) 21:09:29 .
UNISAT 6 22 Nov 21:08:29 21:10:53 15° 89° (E) 21:13:15 437.425
TIGRISAT 22 Nov 21:12:25 21:14:49 15° 89° (E) 21:17:12 435.000
DELFI C3 22 Nov 21:27:29 21:31:20 49° 260° (W) 21:35:15 145.870
